DLH8LX LROP-EDDF

Flight info

Callsign DLH8LX
Flight time 2h 17m
Altitude 38000
Route SOKRU DCT OXDOC DCT DEGET DCT ARSIN DCT SUBEN DCT AKINI T161 DEBHI DEBHI1B
Aircraft A321/M-SDE2E3FGIJ1LORWXYZ/HB1

Departure

Time 2026-04-18 09:27
Airport Bucharest Henri Coandă International Airport (LROP)

Arrival

Time 2026-04-18 11:45
Airport Frankfurt Main Airport (EDDF)
Time Latitude Longitude Altitude Speed Heading
2026-04-18 08:55 44.57136 26.08005 321 ft 0 kts 174°
2026-04-18 09:18 44.57147 26.08003 319 ft 4 kts 174°
2026-04-18 09:18 44.57171 26.07999 321 ft 4 kts 157°
2026-04-18 09:19 44.57186 26.07978 321 ft 4 kts 95°
2026-04-18 09:19 44.57185 26.07951 321 ft 1 kts 84°
2026-04-18 09:19 44.57185 26.07946 321 ft 0 kts 84°
2026-04-18 09:22 44.57188 26.07989 320 ft 8 kts 84°
2026-04-18 09:22 44.57195 26.08076 321 ft 10 kts 84°
2026-04-18 09:23 44.57203 26.08176 321 ft 11 kts 84°
2026-04-18 09:23 44.57214 26.08291 321 ft 13 kts 76°
2026-04-18 09:23 44.57170 26.08366 321 ft 12 kts 173°
2026-04-18 09:23 44.57082 26.08378 321 ft 13 kts 174°
2026-04-18 09:24 44.56985 26.08393 320 ft 15 kts 174°
2026-04-18 09:24 44.56883 26.08381 320 ft 15 kts 218°
2026-04-18 09:24 44.56826 26.08246 319 ft 17 kts 243°
2026-04-18 09:24 44.56774 26.08094 320 ft 18 kts 252°
2026-04-18 09:25 44.56739 26.07920 320 ft 19 kts 254°
2026-04-18 09:25 44.56705 26.07742 320 ft 17 kts 253°
2026-04-18 09:25 44.56633 26.07668 320 ft 13 kts 178°
2026-04-18 09:25 44.56592 26.07674 319 ft 0 kts 173°
2026-04-18 09:26 44.56561 26.07678 320 ft 8 kts 173°
2026-04-18 09:26 44.56487 26.07696 319 ft 12 kts 155°
2026-04-18 09:26 44.56474 26.07781 320 ft 7 kts 83°
2026-04-18 09:27 44.56484 26.07914 320 ft 39 kts 83°
2026-04-18 09:27 44.56540 26.08663 322 ft 113 kts 84°
2026-04-18 09:27 44.56644 26.10039 409 ft 161 kts 85°
2026-04-18 09:27 44.56749 26.11623 1101 ft 166 kts 85°
2026-04-18 09:28 44.56853 26.13268 1772 ft 173 kts 79°
2026-04-18 09:28 44.56996 26.15047 2086 ft 195 kts 79°
2026-04-18 09:28 44.57162 26.17038 2465 ft 214 kts 81°
2026-04-18 09:28 44.57332 26.19140 3238 ft 218 kts 77°
2026-04-18 09:29 44.57897 26.21114 3795 ft 228 kts 45°
2026-04-18 09:29 44.59326 26.22207 4266 ft 242 kts
2026-04-18 09:29 44.60953 26.21756 4999 ft 250 kts 330°
2026-04-18 09:29 44.62202 26.20020 5801 ft 258 kts 309°
2026-04-18 09:30 44.63464 26.18256 6586 ft 258 kts 333°
2026-04-18 09:30 44.65171 26.17516 7356 ft 260 kts 352°
2026-04-18 09:30 44.66983 26.17321 8151 ft 263 kts 358°
2026-04-18 09:30 44.68823 26.17280 8953 ft 266 kts 358°
2026-04-18 09:31 44.70678 26.17230 9760 ft 268 kts 357°
2026-04-18 09:31 44.72562 26.17120 10412 ft 278 kts 356°
2026-04-18 09:31 44.74552 26.16779 10604 ft 300 kts 345°
2026-04-18 09:31 44.76486 26.15556 11032 ft 311 kts 327°
2026-04-18 09:32 44.78094 26.13482 11675 ft 318 kts 310°
2026-04-18 09:32 44.78932 26.11721 12125 ft 322 kts 304°
2026-04-18 09:32 44.80093 26.09061 12808 ft 325 kts 304°
2026-04-18 09:32 44.81286 26.06338 13501 ft 328 kts 304°
2026-04-18 09:33 44.82493 26.03589 14143 ft 331 kts 304°
2026-04-18 09:33 44.83711 26.00820 14755 ft 334 kts 304°
2026-04-18 09:33 44.84939 25.98029 15385 ft 336 kts 304°
2026-04-18 09:33 44.86149 25.95190 15999 ft 340 kts 300°
2026-04-18 09:34 44.87030 25.92064 16604 ft 347 kts 289°
2026-04-18 09:34 44.87709 25.88793 17238 ft 349 kts 289°
2026-04-18 09:34 44.88397 25.85498 17872 ft 352 kts 289°
2026-04-18 09:34 44.89093 25.82181 18456 ft 354 kts 290°
2026-04-18 09:35 44.89796 25.78840 18981 ft 357 kts 290°
2026-04-18 09:35 44.90502 25.75474 19505 ft 359 kts 290°
2026-04-18 09:35 44.91214 25.72080 20027 ft 362 kts 290°
2026-04-18 09:35 44.91929 25.68657 20534 ft 365 kts 290°
2026-04-18 09:36 44.92646 25.65213 21039 ft 368 kts 290°
2026-04-18 09:36 44.93368 25.61741 21525 ft 370 kts 290°
2026-04-18 09:36 44.94099 25.58233 21921 ft 375 kts 290°
2026-04-18 09:36 44.94837 25.54679 22361 ft 379 kts 290°
2026-04-18 09:37 44.95578 25.51096 22837 ft 382 kts 290°
2026-04-18 09:37 44.96323 25.47482 23327 ft 385 kts 291°
2026-04-18 09:37 44.97070 25.43838 23764 ft 388 kts 290°
2026-04-18 09:37 44.97823 25.40165 24128 ft 391 kts 290°
2026-04-18 09:38 44.98580 25.36468 24510 ft 393 kts 290°
2026-04-18 09:38 44.99337 25.32798 24893 ft 395 kts 291°
2026-04-18 09:38 45.00200 25.29050 25289 ft 396 kts 293°
2026-04-18 09:38 45.01124 25.25430 25646 ft 398 kts 295°
2026-04-18 09:39 45.02112 25.21756 25981 ft 401 kts 296°
2026-04-18 09:39 45.03209 25.18133 26333 ft 400 kts 303°
2026-04-18 09:39 45.04603 25.14734 26691 ft 401 kts 305°
2026-04-18 09:39 45.06006 25.11316 27058 ft 403 kts 304°
2026-04-18 09:40 45.07396 25.07859 27426 ft 406 kts 304°
2026-04-18 09:40 45.08780 25.04367 27788 ft 408 kts 304°
2026-04-18 09:40 45.10165 25.00847 28139 ft 410 kts 304°
2026-04-18 09:40 45.11559 24.97307 28503 ft 413 kts 304°
2026-04-18 09:41 45.12966 24.93751 28831 ft 415 kts 305°
2026-04-18 09:41 45.14385 24.90180 29161 ft 418 kts 305°
2026-04-18 09:41 45.15813 24.86584 29514 ft 420 kts 305°
2026-04-18 09:41 45.17248 24.82965 29860 ft 422 kts 305°
2026-04-18 09:42 45.18688 24.79325 30185 ft 425 kts 304°
2026-04-18 09:42 45.20133 24.75664 30469 ft 427 kts 304°
2026-04-18 09:42 45.21584 24.71979 30740 ft 428 kts 304°
2026-04-18 09:42 45.23037 24.68285 31010 ft 430 kts 304°
2026-04-18 09:43 45.24497 24.64573 31264 ft 432 kts 304°
2026-04-18 09:43 45.25964 24.60845 31486 ft 434 kts 304°
2026-04-18 09:43 45.27435 24.57099 31708 ft 435 kts 303°
2026-04-18 09:43 45.28906 24.53342 32009 ft 435 kts 303°
2026-04-18 09:44 45.30373 24.49586 32336 ft 434 kts 303°
2026-04-18 09:44 45.31834 24.45836 32654 ft 434 kts 303°
2026-04-18 09:44 45.33293 24.42093 32959 ft 433 kts 302°
2026-04-18 09:44 45.34750 24.38351 33290 ft 432 kts 302°
2026-04-18 09:45 45.36205 24.34610 33632 ft 432 kts 302°
2026-04-18 09:45 45.37656 24.30878 33933 ft 431 kts 302°
2026-04-18 09:45 45.39084 24.27196 34189 ft 431 kts 302°
2026-04-18 09:45 45.40530 24.23457 34430 ft 431 kts 302°
2026-04-18 09:46 45.41976 24.19715 34654 ft 432 kts 302°
2026-04-18 09:46 45.43424 24.15966 34841 ft 432 kts 302°
2026-04-18 09:46 45.44872 24.12212 35047 ft 433 kts 302°
2026-04-18 09:46 45.46320 24.08458 35261 ft 433 kts 302°
2026-04-18 09:47 45.47770 24.04697 35476 ft 433 kts 301°
2026-04-18 09:47 45.49220 24.00929 35676 ft 434 kts 301°
2026-04-18 09:47 45.50668 23.97157 35868 ft 434 kts 302°
2026-04-18 09:47 45.52113 23.93384 36080 ft 434 kts 301°
2026-04-18 09:48 45.53553 23.89606 36290 ft 434 kts 301°
2026-04-18 09:48 45.54995 23.85823 36493 ft 434 kts 301°
2026-04-18 09:48 45.56438 23.82037 36692 ft 435 kts 301°
2026-04-18 09:48 45.57884 23.78246 36864 ft 435 kts 301°
2026-04-18 09:49 45.59331 23.74452 37042 ft 435 kts 301°
2026-04-18 09:49 45.60778 23.70657 37225 ft 435 kts 301°
2026-04-18 09:49 45.62224 23.66855 37386 ft 436 kts 301°
2026-04-18 09:49 45.63669 23.63049 37545 ft 436 kts 301°
2026-04-18 09:50 45.65110 23.59240 37706 ft 436 kts 301°
2026-04-18 09:50 45.66552 23.55423 37867 ft 436 kts 301°
2026-04-18 09:50 45.67993 23.51606 38038 ft 436 kts 300°
2026-04-18 09:50 45.69430 23.47785 38078 ft 437 kts 300°
2026-04-18 09:51 45.72302 23.40122 38075 ft 437 kts 300°
2026-04-18 09:51 45.75176 23.32463 38069 ft 436 kts 301°
2026-04-18 09:52 45.78042 23.24804 38072 ft 436 kts 301°
2026-04-18 09:52 45.80904 23.17136 38072 ft 436 kts 301°
2026-04-18 09:53 45.83764 23.09460 38093 ft 437 kts 300°
2026-04-18 09:53 45.86618 23.01759 38094 ft 437 kts 301°
2026-04-18 09:54 45.89459 22.94057 38093 ft 436 kts 301°
2026-04-18 09:54 45.92301 22.86359 38098 ft 436 kts 301°
2026-04-18 09:55 45.95139 22.78655 38096 ft 436 kts 301°
2026-04-18 09:55 45.97962 22.70945 38082 ft 436 kts 301°
2026-04-18 09:56 46.00762 22.63283 38086 ft 435 kts 301°
2026-04-18 09:56 46.03583 22.55577 38094 ft 435 kts 301°
2026-04-18 09:57 46.06387 22.47856 38093 ft 435 kts 301°
2026-04-18 09:57 46.09182 22.40136 38104 ft 435 kts 301°
2026-04-18 09:58 46.11971 22.32410 38087 ft 435 kts 301°
2026-04-18 09:58 46.14754 22.24666 38096 ft 435 kts 301°
2026-04-18 09:59 46.17538 22.16922 38104 ft 435 kts 301°
2026-04-18 10:00 46.21713 22.05291 38092 ft 435 kts 300°
2026-04-18 10:00 46.24486 21.97520 38101 ft 436 kts 300°
2026-04-18 10:01 46.27254 21.89722 38123 ft 436 kts 300°
2026-04-18 10:01 46.30025 21.81912 38127 ft 437 kts 300°
2026-04-18 10:02 46.32795 21.74093 38133 ft 437 kts 300°
2026-04-18 10:02 46.35556 21.66253 38133 ft 437 kts 300°
2026-04-18 10:03 46.38311 21.58406 38146 ft 437 kts 300°
2026-04-18 10:03 46.41042 21.50617 38145 ft 437 kts 300°
2026-04-18 10:04 46.43790 21.42763 38150 ft 437 kts 300°
2026-04-18 10:04 46.46546 21.34851 38137 ft 436 kts 300°
2026-04-18 10:05 46.49261 21.26984 38148 ft 437 kts 297°
2026-04-18 10:05 46.51444 21.18792 38154 ft 438 kts 294°
2026-04-18 10:06 46.53602 21.10518 38170 ft 438 kts 294°
2026-04-18 10:06 46.55759 21.02243 38152 ft 438 kts 294°
2026-04-18 10:07 46.57914 20.93969 38167 ft 437 kts 294°
2026-04-18 10:07 46.60059 20.85692 38170 ft 437 kts 294°
2026-04-18 10:08 46.62188 20.77409 38176 ft 437 kts 294°
2026-04-18 10:08 46.64309 20.69122 38176 ft 437 kts 294°
2026-04-18 10:09 46.66422 20.60838 38168 ft 436 kts 295°
2026-04-18 10:09 46.68534 20.52560 38176 ft 436 kts 295°
2026-04-18 10:10 46.70636 20.44281 38185 ft 436 kts 294°
2026-04-18 10:10 46.72730 20.35996 38187 ft 436 kts 294°
2026-04-18 10:11 46.74823 20.27709 38187 ft 436 kts 294°
2026-04-18 10:11 46.76906 20.19416 38191 ft 435 kts 294°
2026-04-18 10:12 46.78982 20.11120 38198 ft 435 kts 294°
2026-04-18 10:12 46.81051 20.02819 38206 ft 435 kts 294°
2026-04-18 10:13 46.83115 19.94511 38194 ft 435 kts 294°
2026-04-18 10:13 46.85170 19.86197 38216 ft 435 kts 295°
2026-04-18 10:14 46.87218 19.77896 38220 ft 434 kts 294°
2026-04-18 10:14 46.89254 19.69594 38220 ft 434 kts 294°
2026-04-18 10:15 46.91285 19.61288 38203 ft 434 kts 294°
2026-04-18 10:15 46.93315 19.52979 38191 ft 433 kts 295°
2026-04-18 10:16 46.95320 19.44728 38201 ft 433 kts 295°
2026-04-18 10:16 46.97332 19.36422 38203 ft 433 kts 295°
2026-04-18 10:17 46.99333 19.28120 38203 ft 432 kts 295°
2026-04-18 10:17 47.01328 19.19815 38175 ft 432 kts 295°
2026-04-18 10:18 47.03312 19.11513 38191 ft 431 kts 295°
2026-04-18 10:18 47.05292 19.03218 38208 ft 431 kts 295°
2026-04-18 10:19 47.07264 18.94916 38206 ft 431 kts 295°
2026-04-18 10:19 47.09226 18.86617 38204 ft 430 kts 295°
2026-04-18 10:20 47.11176 18.78324 38186 ft 430 kts 295°
2026-04-18 10:20 47.12795 18.71435 38197 ft 429 kts 295°
2026-04-18 10:21 47.14741 18.63147 38201 ft 429 kts 295°
2026-04-18 10:21 47.16675 18.54853 38205 ft 429 kts 295°
2026-04-18 10:22 47.18599 18.46548 38205 ft 429 kts 295°
2026-04-18 10:22 47.20519 18.38250 38197 ft 428 kts 295°
2026-04-18 10:23 47.22428 18.29958 38210 ft 428 kts 295°
2026-04-18 10:23 47.24335 18.21670 38211 ft 427 kts 295°
2026-04-18 10:24 47.26227 18.13391 38210 ft 427 kts 295°
2026-04-18 10:24 47.28108 18.05107 38182 ft 426 kts 295°
2026-04-18 10:25 47.29987 17.96835 38207 ft 425 kts 295°
2026-04-18 10:25 47.31861 17.88579 38212 ft 425 kts 295°
2026-04-18 10:26 47.33726 17.80310 38224 ft 425 kts 295°
2026-04-18 10:26 47.35579 17.72037 38210 ft 425 kts 295°
2026-04-18 10:27 47.37425 17.63764 38203 ft 424 kts 294°
2026-04-18 10:27 47.39265 17.55497 38214 ft 424 kts 294°
2026-04-18 10:28 47.41095 17.47228 38217 ft 423 kts 294°
2026-04-18 10:28 47.42921 17.38968 38218 ft 423 kts 294°
2026-04-18 10:29 47.44742 17.30713 38186 ft 423 kts 294°
2026-04-18 10:29 47.46556 17.22452 38208 ft 422 kts 294°
2026-04-18 10:30 47.48358 17.14194 38214 ft 422 kts 294°
2026-04-18 10:30 47.50150 17.05921 38223 ft 422 kts 294°
2026-04-18 10:31 47.51934 16.97650 38223 ft 422 kts 294°
2026-04-18 10:31 47.53720 16.89365 38208 ft 422 kts 293°
2026-04-18 10:32 47.55485 16.81142 38226 ft 422 kts 293°
2026-04-18 10:32 47.57293 16.72878 38223 ft 420 kts 295°
2026-04-18 10:33 47.59426 16.64861 38228 ft 418 kts 298°
2026-04-18 10:33 47.61708 16.56950 38228 ft 417 kts 298°
2026-04-18 10:34 47.63930 16.49003 38218 ft 418 kts 297°
2026-04-18 10:34 47.66086 16.41000 38221 ft 418 kts 297°
2026-04-18 10:35 47.68224 16.32991 38231 ft 417 kts 297°
2026-04-18 10:35 47.70371 16.24983 38231 ft 417 kts 297°
2026-04-18 10:36 47.72518 16.16978 38194 ft 417 kts 296°
2026-04-18 10:36 47.74650 16.08964 38214 ft 417 kts 296°
2026-04-18 10:37 47.76777 16.00945 38219 ft 417 kts 296°
2026-04-18 10:37 47.78899 15.92920 38225 ft 417 kts 296°
2026-04-18 10:38 47.81019 15.84890 38229 ft 417 kts 296°
2026-04-18 10:38 47.83128 15.76863 38202 ft 416 kts 296°
2026-04-18 10:39 47.85234 15.68831 38211 ft 416 kts 295°
2026-04-18 10:39 47.87336 15.60795 38216 ft 417 kts 295°
2026-04-18 10:40 47.89419 15.52802 38214 ft 417 kts 295°
2026-04-18 10:40 47.91509 15.44747 38215 ft 416 kts 295°
2026-04-18 10:41 47.93583 15.36681 38197 ft 417 kts 294°
2026-04-18 10:41 47.95659 15.28595 38206 ft 418 kts 295°
2026-04-18 10:42 47.97736 15.20503 38211 ft 418 kts 294°
2026-04-18 10:42 47.99811 15.12399 38213 ft 418 kts 294°
2026-04-18 10:43 48.01884 15.04286 38212 ft 418 kts 294°
2026-04-18 10:43 48.03949 14.96162 38200 ft 418 kts 293°
2026-04-18 10:44 48.06003 14.88023 38209 ft 419 kts 294°
2026-04-18 10:44 48.08058 14.79876 38212 ft 419 kts 293°
2026-04-18 10:45 48.10110 14.71730 38215 ft 419 kts 293°
2026-04-18 10:45 48.12149 14.63568 38202 ft 419 kts 292°
2026-04-18 10:46 48.14182 14.55401 38214 ft 419 kts 292°
2026-04-18 10:46 48.16209 14.47232 38233 ft 419 kts 292°
2026-04-18 10:47 48.18228 14.39050 38241 ft 419 kts 292°
2026-04-18 10:47 48.20245 14.30861 38244 ft 419 kts 292°
2026-04-18 10:48 48.22257 14.22669 38230 ft 419 kts 291°
2026-04-18 10:48 48.24268 14.14468 38234 ft 419 kts 291°
2026-04-18 10:49 48.26263 14.06259 38238 ft 419 kts 291°
2026-04-18 10:49 48.28244 13.98099 38215 ft 419 kts 291°
2026-04-18 10:50 48.30242 13.89883 38214 ft 419 kts 291°
2026-04-18 10:50 48.32229 13.81664 38205 ft 419 kts 291°
2026-04-18 10:51 48.34205 13.73431 38214 ft 419 kts 291°
2026-04-18 10:51 48.36173 13.65185 38215 ft 419 kts 291°
2026-04-18 10:52 48.38137 13.56941 38215 ft 419 kts 291°
2026-04-18 10:52 48.40098 13.48694 38212 ft 419 kts 291°
2026-04-18 10:53 48.42049 13.40447 38213 ft 418 kts 290°
2026-04-18 10:53 48.43990 13.32200 38215 ft 418 kts 291°
2026-04-18 10:54 48.46081 13.24107 38217 ft 417 kts 292°
2026-04-18 10:54 48.48281 13.16037 38210 ft 416 kts 293°
2026-04-18 10:55 48.50451 13.07946 38208 ft 416 kts 292°
2026-04-18 10:55 48.52575 12.99827 38212 ft 416 kts 291°
2026-04-18 10:56 48.54685 12.91708 38214 ft 416 kts 291°
2026-04-18 10:56 48.56786 12.83581 38213 ft 415 kts 291°
2026-04-18 10:57 48.58890 12.75457 38216 ft 415 kts 291°
2026-04-18 10:57 48.60988 12.67340 38220 ft 415 kts 291°
2026-04-18 10:58 48.63083 12.59226 38217 ft 415 kts 291°
2026-04-18 10:58 48.65166 12.51101 38208 ft 414 kts 291°
2026-04-18 10:59 48.67235 12.42968 38208 ft 414 kts 291°
2026-04-18 10:59 48.69308 12.34837 38203 ft 414 kts 291°
2026-04-18 11:00 48.71376 12.26706 38198 ft 414 kts 290°
2026-04-18 11:00 48.73426 12.18569 38201 ft 414 kts 290°
2026-04-18 11:01 48.75202 12.10300 38208 ft 413 kts 280°
2026-04-18 11:01 48.76128 12.01699 38208 ft 414 kts 280°
2026-04-18 11:02 48.77527 11.88789 38211 ft 414 kts 279°
2026-04-18 11:02 48.78443 11.80171 38211 ft 414 kts 279°
2026-04-18 11:03 48.79366 11.71558 38212 ft 414 kts 279°
2026-04-18 11:03 48.80270 11.62941 38216 ft 414 kts 279°
2026-04-18 11:04 48.81161 11.54379 37857 ft 413 kts 279°
2026-04-18 11:04 48.81606 11.50086 37581 ft 412 kts 279°
2026-04-18 11:04 48.82047 11.45788 37308 ft 412 kts 279°
2026-04-18 11:05 48.82487 11.41485 37037 ft 413 kts 278°
2026-04-18 11:05 48.82928 11.37176 36768 ft 414 kts 278°
2026-04-18 11:05 48.83370 11.32864 36505 ft 414 kts 278°
2026-04-18 11:05 48.83851 11.28553 36241 ft 414 kts 283°
2026-04-18 11:06 48.84741 11.24401 35993 ft 414 kts 293°
2026-04-18 11:06 48.86103 11.20580 35592 ft 411 kts 303°
2026-04-18 11:06 48.87897 11.17214 35110 ft 410 kts 313°
2026-04-18 11:06 48.89988 11.14273 34625 ft 409 kts 315°
2026-04-18 11:07 48.92084 11.11374 34136 ft 406 kts 315°
2026-04-18 11:07 48.94159 11.08489 33641 ft 402 kts 315°
2026-04-18 11:07 48.96211 11.05628 33177 ft 397 kts 315°
2026-04-18 11:07 48.97554 11.03752 32873 ft 394 kts 315°
2026-04-18 11:08 48.99559 11.00941 32411 ft 390 kts 315°
2026-04-18 11:08 49.01538 10.98156 31963 ft 386 kts 315°
2026-04-18 11:08 49.03497 10.95392 31527 ft 382 kts 315°
2026-04-18 11:08 49.05435 10.92651 31089 ft 378 kts 315°
2026-04-18 11:09 49.07353 10.89946 30664 ft 374 kts 315°
2026-04-18 11:09 49.09260 10.87265 30223 ft 371 kts 315°
2026-04-18 11:09 49.11147 10.84609 29776 ft 367 kts 315°
2026-04-18 11:09 49.13005 10.81983 29384 ft 361 kts 315°
2026-04-18 11:10 49.14832 10.79389 28988 ft 356 kts 315°
2026-04-18 11:10 49.16633 10.76828 28604 ft 351 kts 315°
2026-04-18 11:10 49.18409 10.74305 28232 ft 346 kts 315°
2026-04-18 11:10 49.20158 10.71811 27859 ft 341 kts 314°
2026-04-18 11:11 49.21837 10.69282 27504 ft 338 kts 313°
2026-04-18 11:11 49.23474 10.66708 27138 ft 336 kts 311°
2026-04-18 11:11 49.25085 10.64127 26778 ft 334 kts 311°
2026-04-18 11:11 49.26684 10.61557 26430 ft 333 kts 311°
2026-04-18 11:12 49.28279 10.59004 26059 ft 331 kts 312°
2026-04-18 11:12 49.29869 10.56471 25691 ft 329 kts 312°
2026-04-18 11:12 49.31451 10.53956 25325 ft 327 kts 312°
2026-04-18 11:12 49.33027 10.51456 24955 ft 325 kts 312°
2026-04-18 11:13 49.34597 10.48970 24569 ft 323 kts 312°
2026-04-18 11:13 49.36121 10.46461 24160 ft 320 kts 307°
2026-04-18 11:13 49.37416 10.43702 23837 ft 332 kts 303°
2026-04-18 11:13 49.38756 10.40752 23455 ft 340 kts 304°
2026-04-18 11:14 49.40115 10.37773 23098 ft 341 kts 304°
2026-04-18 11:14 49.41476 10.34801 22762 ft 340 kts 304°
2026-04-18 11:14 49.42832 10.31845 22418 ft 338 kts 304°
2026-04-18 11:14 49.44176 10.28904 22083 ft 335 kts 304°
2026-04-18 11:15 49.45509 10.25979 21750 ft 333 kts 304°
2026-04-18 11:15 49.46830 10.23072 21410 ft 331 kts 304°
2026-04-18 11:15 49.48141 10.20183 21077 ft 329 kts 304°
2026-04-18 11:15 49.49444 10.17308 20741 ft 326 kts 304°
2026-04-18 11:16 49.50737 10.14450 20424 ft 325 kts 304°
2026-04-18 11:16 49.52022 10.11606 20082 ft 323 kts 304°
2026-04-18 11:16 49.53297 10.08781 19761 ft 321 kts 304°
2026-04-18 11:16 49.54569 10.05964 19428 ft 319 kts 304°
2026-04-18 11:17 49.55831 10.03164 19103 ft 317 kts 304°
2026-04-18 11:17 49.57084 10.00378 18781 ft 315 kts 304°
2026-04-18 11:17 49.58329 9.97614 18456 ft 313 kts 304°
2026-04-18 11:17 49.59567 9.94863 18111 ft 312 kts 304°
2026-04-18 11:18 49.60801 9.92121 17781 ft 310 kts 303°
2026-04-18 11:18 49.62026 9.89396 17474 ft 308 kts 303°
2026-04-18 11:18 49.63243 9.86680 17161 ft 307 kts 303°
2026-04-18 11:18 49.64454 9.83973 16847 ft 306 kts 303°
2026-04-18 11:19 49.65657 9.81276 16524 ft 305 kts 303°
2026-04-18 11:19 49.66857 9.78585 16217 ft 304 kts 303°
2026-04-18 11:19 49.68052 9.75904 15904 ft 303 kts 303°
2026-04-18 11:19 49.69244 9.73234 15599 ft 301 kts 303°
2026-04-18 11:20 49.70430 9.70576 15295 ft 300 kts 303°
2026-04-18 11:20 49.71609 9.67928 14989 ft 299 kts 304°
2026-04-18 11:20 49.72785 9.65285 14688 ft 298 kts 303°
2026-04-18 11:20 49.73954 9.62652 14394 ft 297 kts 303°
2026-04-18 11:21 49.75121 9.60026 14084 ft 296 kts 303°
2026-04-18 11:21 49.76283 9.57411 13762 ft 294 kts 303°
2026-04-18 11:21 49.77438 9.54801 13450 ft 294 kts 303°
2026-04-18 11:21 49.78592 9.52190 13141 ft 293 kts 303°
2026-04-18 11:22 49.79741 9.49588 12846 ft 292 kts 303°
2026-04-18 11:22 49.80884 9.46992 12561 ft 292 kts 303°
2026-04-18 11:22 49.82025 9.44394 12263 ft 292 kts 303°
2026-04-18 11:22 49.83167 9.41795 11967 ft 291 kts 303°
2026-04-18 11:23 49.84306 9.39203 11665 ft 291 kts 303°
2026-04-18 11:23 49.85445 9.36614 11371 ft 290 kts 303°
2026-04-18 11:23 49.86392 9.33874 11094 ft 288 kts 290°
2026-04-18 11:23 49.86981 9.30910 11014 ft 289 kts 285°
2026-04-18 11:24 49.87549 9.27922 10906 ft 289 kts 286°
2026-04-18 11:24 49.88121 9.24932 10793 ft 289 kts 286°
2026-04-18 11:24 49.88693 9.21952 10678 ft 288 kts 286°
2026-04-18 11:24 49.89265 9.18971 10562 ft 288 kts 286°
2026-04-18 11:25 49.89831 9.16003 10449 ft 287 kts 285°
2026-04-18 11:25 49.90395 9.13036 10333 ft 286 kts 285°
2026-04-18 11:25 49.90957 9.10079 10201 ft 285 kts 285°
2026-04-18 11:25 49.91504 9.07200 9931 ft 277 kts 285°
2026-04-18 11:26 49.92048 9.04336 9804 ft 277 kts 285°
2026-04-18 11:26 49.92592 9.01464 9669 ft 277 kts 285°
2026-04-18 11:26 49.93136 8.98593 9535 ft 277 kts 285°
2026-04-18 11:26 49.93678 8.95718 9405 ft 277 kts 285°
2026-04-18 11:27 49.94218 8.92857 9267 ft 276 kts 287°
2026-04-18 11:27 49.95129 8.90240 9130 ft 279 kts 309°
2026-04-18 11:27 49.96661 8.88402 9004 ft 283 kts 333°
2026-04-18 11:27 49.98572 8.87661 8868 ft 287 kts 357°
2026-04-18 11:28 50.00535 8.88205 8744 ft 291 kts 22°
2026-04-18 11:28 50.02188 8.89994 8608 ft 293 kts 48°
2026-04-18 11:28 50.03212 8.92701 8484 ft 293 kts 71°
2026-04-18 11:28 50.03874 8.95701 8367 ft 293 kts 71°
2026-04-18 11:29 50.04557 8.98682 8223 ft 293 kts 70°
2026-04-18 11:29 50.05256 9.01656 8108 ft 292 kts 70°
2026-04-18 11:29 50.05958 9.04616 7980 ft 291 kts 70°
2026-04-18 11:29 50.06661 9.07574 7856 ft 291 kts 70°
2026-04-18 11:30 50.07358 9.10529 7737 ft 291 kts 70°
2026-04-18 11:30 50.08052 9.13489 7606 ft 291 kts 70°
2026-04-18 11:30 50.08743 9.16439 7485 ft 290 kts 70°
2026-04-18 11:30 50.09431 9.19381 7350 ft 289 kts 71°
2026-04-18 11:31 50.10113 9.22321 7226 ft 288 kts 71°
2026-04-18 11:31 50.10792 9.25253 7102 ft 288 kts 71°
2026-04-18 11:31 50.11460 9.28146 6980 ft 287 kts 71°
2026-04-18 11:31 50.12143 9.31107 6857 ft 287 kts 71°
2026-04-18 11:32 50.12810 9.33990 6735 ft 286 kts 71°
2026-04-18 11:32 50.13485 9.36907 6613 ft 286 kts 71°
2026-04-18 11:32 50.14159 9.39821 6482 ft 286 kts 71°
2026-04-18 11:32 50.14827 9.42728 6351 ft 285 kts 71°
2026-04-18 11:33 50.15494 9.45634 6221 ft 284 kts 71°
2026-04-18 11:33 50.16451 9.48304 6091 ft 284 kts 46°
2026-04-18 11:33 50.18057 9.50019 5955 ft 280 kts 18°
2026-04-18 11:33 50.19961 9.50401 5832 ft 276 kts 351°
2026-04-18 11:34 50.21742 9.49436 5705 ft 270 kts 324°
2026-04-18 11:34 50.23048 9.47392 5585 ft 265 kts 298°
2026-04-18 11:34 50.23652 9.44727 5447 ft 260 kts 274°
2026-04-18 11:34 50.23489 9.41945 5323 ft 259 kts 252°
2026-04-18 11:35 50.22908 9.39289 5207 ft 259 kts 250°
2026-04-18 11:35 50.22303 9.36646 5070 ft 259 kts 250°
2026-04-18 11:35 50.21690 9.34007 4946 ft 259 kts 250°
2026-04-18 11:35 50.21074 9.31373 4815 ft 257 kts 249°
2026-04-18 11:36 50.20460 9.28746 4690 ft 258 kts 250°
2026-04-18 11:36 50.19848 9.26120 4555 ft 255 kts 249°
2026-04-18 11:36 50.19247 9.23525 4428 ft 255 kts 250°
2026-04-18 11:36 50.18644 9.20920 4303 ft 256 kts 250°
2026-04-18 11:37 50.18040 9.18311 4175 ft 257 kts 251°
2026-04-18 11:37 50.17431 9.15685 4056 ft 258 kts 251°
2026-04-18 11:37 50.16821 9.13054 4015 ft 259 kts 251°
2026-04-18 11:37 50.16200 9.10430 4016 ft 258 kts 250°
2026-04-18 11:38 50.15576 9.07801 4023 ft 258 kts 251°
2026-04-18 11:38 50.14961 9.05163 4015 ft 259 kts 251°
2026-04-18 11:38 50.14346 9.02527 4031 ft 259 kts 251°
2026-04-18 11:38 50.13735 8.99909 4009 ft 249 kts 251°
2026-04-18 11:39 50.13170 8.97495 4029 ft 227 kts 251°
2026-04-18 11:39 50.12653 8.95290 4019 ft 207 kts 251°
2026-04-18 11:39 50.12173 8.93239 4011 ft 198 kts 251°
2026-04-18 11:39 50.11707 8.91249 4016 ft 189 kts 251°
2026-04-18 11:40 50.11261 8.89350 4033 ft 186 kts 251°
2026-04-18 11:40 50.10820 8.87471 4022 ft 185 kts 251°
2026-04-18 11:40 50.10379 8.85591 3905 ft 184 kts 251°
2026-04-18 11:40 50.09938 8.83720 3699 ft 184 kts 251°
2026-04-18 11:41 50.09497 8.81847 3464 ft 185 kts 251°
2026-04-18 11:41 50.09054 8.79970 3216 ft 185 kts 251°
2026-04-18 11:41 50.08613 8.78098 2977 ft 186 kts 251°
2026-04-18 11:41 50.08168 8.76215 2718 ft 184 kts 250°
2026-04-18 11:42 50.07724 8.74335 2467 ft 185 kts 251°
2026-04-18 11:42 50.07279 8.72457 2215 ft 184 kts 250°
2026-04-18 11:42 50.06862 8.70697 1981 ft 163 kts 251°
2026-04-18 11:42 50.06487 8.69115 1776 ft 149 kts 251°
2026-04-18 11:43 50.06144 8.67667 1585 ft 142 kts 250°
2026-04-18 11:43 50.05806 8.66241 1403 ft 139 kts 251°
2026-04-18 11:43 50.05471 8.64830 1216 ft 139 kts 251°
2026-04-18 11:43 50.05136 8.63418 1031 ft 139 kts 251°
2026-04-18 11:44 50.04803 8.62008 880 ft 140 kts 252°
2026-04-18 11:44 50.04467 8.60585 675 ft 140 kts 251°
2026-04-18 11:44 50.04123 8.59164 483 ft 141 kts 252°
2026-04-18 11:44 50.03782 8.57741 367 ft 137 kts 251°
2026-04-18 11:45 50.03498 8.56542 353 ft 95 kts 250°
2026-04-18 11:45 50.03332 8.55828 351 ft 48 kts 249°
2026-04-18 11:45 50.03318 8.55493 349 ft 23 kts 285°
2026-04-18 11:45 50.03321 8.55437 348 ft 0 kts 278°
2026-04-18 11:46 50.03325 8.55393 343 ft 7 kts 278°
2026-04-18 11:47 50.03336 8.55289 348 ft 12 kts 279°
2026-04-18 11:47 50.03350 8.55149 348 ft 14 kts 280°
2026-04-18 11:47 50.03366 8.54987 342 ft 16 kts 269°
2026-04-18 11:47 50.03334 8.54810 340 ft 19 kts 249°
2026-04-18 11:48 50.03289 8.54625 335 ft 17 kts 250°
2026-04-18 11:48 50.03296 8.54494 337 ft 12 kts 320°
2026-04-18 11:48 50.03357 8.54455 336 ft 9 kts 340°
2026-04-18 11:48 50.03385 8.54439 338 ft 0 kts 340°
2026-04-18 11:49 50.03410 8.54424 338 ft 11 kts 339°
2026-04-18 11:50 50.03482 8.54383 346 ft 12 kts 339°
2026-04-18 11:50 50.03566 8.54333 349 ft 15 kts 339°
2026-04-18 11:50 50.03652 8.54327 346 ft 12 kts 32°
2026-04-18 11:50 50.03691 8.54451 350 ft 14 kts 70°
2026-04-18 11:51 50.03725 8.54595 353 ft 14 kts 70°
2026-04-18 11:51 50.03760 8.54743 350 ft 15 kts 70°
2026-04-18 11:51 50.03798 8.54901 355 ft 16 kts 69°
2026-04-18 11:51 50.03839 8.55071 353 ft 17 kts 70°
2026-04-18 11:52 50.03883 8.55256 356 ft 19 kts 70°
2026-04-18 11:52 50.03931 8.55456 357 ft 21 kts 69°
2026-04-18 11:52 50.03981 8.55671 357 ft 21 kts 71°
2026-04-18 11:52 50.04027 8.55858 358 ft 19 kts 72°
2026-04-18 11:53 50.04070 8.56044 359 ft 17 kts 69°
2026-04-18 11:53 50.04114 8.56226 356 ft 19 kts 69°
2026-04-18 11:53 50.04162 8.56422 358 ft 20 kts 69°
2026-04-18 11:53 50.04209 8.56626 357 ft 20 kts 70°
2026-04-18 11:54 50.04261 8.56788 362 ft 14 kts 35°
2026-04-18 11:54 50.04353 8.56832 360 ft 15 kts
2026-04-18 11:54 50.04464 8.56859 359 ft 17 kts 11°
2026-04-18 11:54 50.04573 8.56894 360 ft 18 kts 14°
2026-04-18 11:55 50.04673 8.56932 362 ft 9 kts 347°
2026-04-18 11:55 50.04689 8.56900 359 ft 3 kts 291°
2026-04-18 11:55 50.04698 8.56866 359 ft 1 kts 293°
2026-04-18 11:55 50.04701 8.56856 361 ft 2 kts 294°
2026-04-18 11:56 50.04703 8.56847 362 ft 1 kts 294°
2026-04-18 11:56 50.04705 8.56842 362 ft 0 kts 294°